STARLINK-3764, 52280

Orbit data source: Space-Track

STARLINK-3764, 52280 is a payload satellite owned by SpaceX/Seattle (US) in LEO that was launched on Thu, 21 Apr 2022 UTC via an FALCON 9 launch vehicle from the Air Force Eastern Test Range (AFETR). Payload-class satellites include a variety of spacecraft equipped with specific instruments for various scientific and technological missions. These include communications satellites like Starlink; space stations such as the ISS; scientific satellites like the Hubble; Earth observation satellites from companies like Planet Labs, Umbra, and HawkEye 360; GPS; miniature CubeSats for education and research; and military/defense satellites.

Loading next visibility...
Identifier
52280, 2022-041V
Orbit
LEO
Country
Flag of USUS
Related business
Manufacturer
SpaceX/Seattle
Mission
Operational Commercial Communications
Bus & Motor
STARLINK, Unknown motor
Mass
297 kg wet, ~275 kg dry
Launch date (UTC)
2022-04-21 (4 years ago)
Launch vehicle
FALCON 9
Launch site
Air Force Eastern Test Range (AFETR)
Object type
Payload
Rocket body
Debris
Shape & HBR
Box + 1 Pan, 10.1 m
Radar Cross Section
11.087 m², Large (>1 m²)

Expand to show TLE details & history
Last TLE update: 1 day ago

TLE from 1 day ago
0 STARLINK-3764
1 52280U 22041V   26129.46510754  .00000308  00000-0  37457-4 0  9999
2 52280  53.2160 196.2883 0001134  83.6246 276.4875 15.08841632223544
Epoch: 2026-05-09T11:09Z
TLE epoch observation values (Epoch: 2026-05-09T11:09:45.291Z)
Latitude
-0.00004°
Longitude
161.5674°
Altitude
540.547 km
Speed
7.593 km/s
True Right ascension
13h 05m 09s
True Declination
0° 00' 00"
Sunlit
Object was in full shadow at epoch
Visualization orbit readout
Latitude
Unknown
Longitude
Unknown
Altitude
Unknown
Speed
Unknown
Apparent Right ascension
Unknown
Apparent Declination
Unknown
Sunlit
N/A
Visualization observer readout
Local Sidereal Time
20:35:30
Azimuth
Unknown
Elevation
Unknown
Doppler factor
Unknown
Orbital elements
Apogee altitude
540.768 km
Perigee altitude
539.199 km
Semi-major axis
6,918.121 km
Eccentricity
0.00011
Inclination
53.216°
RAAN
196.2883°
Arg. of periapsis
83.6246°
True anomaly
276.47459°
Mean anomaly
276.4875°
Eccentric anomaly
276.48104°
Mean motion
3.77191 °/min
Orbital period
95.44 mins
BSTAR
0.000037457
Loading maneuver chart data...
Computing Atmospheric mass density...
Loading historical data...
Loading historical data...
Loading historical data...
Loading historical data...
Loading historical data...
Loading historical data...
Loading historical data...

Documentation

Showing up to 5 results
|